Location: Ferintosh
(52.7647°N, 112.9692°W)
Time: 14:50:00
(UTC+00:00)

Transit 2A Rocket - Visible Passes

Search period start: 19 May 2024 00:00
Search period end: 29 May 2024 00:00
Orbit: 585 x 908 km, 66.7° (Epoch: 18 May)

Date Brightness Start Highest point End Pass type
(mag) Time Alt. Az. Time Alt. Az. Time Alt. Az.
19 May 7.6 10:43:07 10° ESE 10:44:28 11° E 10:45:52 10° E visible
22 May 7.2 10:11:57 10° SE 10:14:36 15° ESE 10:17:22 10° ENE visible
24 May 6.4 10:24:10 10° S 10:28:23 30° ESE 10:33:00 10° NE visible
25 May 7.0 09:41:22 10° SSE 09:44:45 19° ESE 09:48:20 10° ENE visible
26 May 7.3 08:59:52 10° ESE 09:01:12 11° E 09:02:34 10° E visible
27 May 6.0 09:54:06 10° S 09:58:36 38° ESE 10:03:33 10° NE visible
28 May 6.6 09:11:00 10° SSE 09:14:53 24° ESE 09:19:05 10° ENE visible
